Location: Madrid
(40.4000°N, 3.6830°W)
Time: 18:40:25
(UTC+01:00)

ISS - Pass Details

Date: 20 January 2021
Orbit: 418 x 421 km, 51.6° (Epoch: 24 January)

Event Time Altitude Azimuth Distance (km) Brightness Sun altitude
Rises 20:12:27 0° 254° (WSW) 2,362 1.6 -21.4°
Reaches altitude 10° 20:14:40 10° 264° (W) 1,501 0.2 -21.8°
Enters shadow 20:17:40 34° 326° (NW) 711 -2.5 -22.4°
